Weather History for Miami, FL

Change the Weather History Date:

Sunday, February 10, 2013

  Actual Average Record
Temperature  
Mean Temperature 75 °F 70 °F  
Max Temperature 80 °F 78 °F 89 °F (1982)
Min Temperature 69 °F 62 °F 40 °F (1947)
Degree Days  
Heating Degree Days 0 1  
Month to date heating degree days 0 10  
Since 1 July heating degree days 20 100  
Cooling Degree Days 10 6  
Month to date cooling degree days 55 54  
Year to date cooling degree days 324 205  
Growing Degree Days 24 (Base 50)    
Moisture  
Dew Point 61 °F    
Average Humidity 63    
Maximum Humidity 73    
Minimum Humidity 52    
Precipitation  
Precipitation T in 0.08 in 1.16 in (1937)
Month to date precipitation T 0.78  
Year to date precipitation 0.54 2.40  
Snow  
Snow 0.00 in - - ()
Month to date snowfall 0.0  
Since 1 July snowfall 0.0  
Snow Depth 0.00 in    
Sea Level Pressure  
Sea Level Pressure 30.20 in    
Wind  
Wind Speed 14 mph (East)    
Max Wind Speed 23 mph    
Max Gust Speed 29 mph    
Visibility 10 miles    
Events Rain    
T = Trace of Precipitation, MM = Missing Value Source: NWS Daily Summary

Daily Weather History Graph

Daily Weather History Graph

Search for Another Location

Airport:

Trip Planner

Search our weather history database for the weather conditions in past years. The results will help you decide how hot, cold, wet, or windy it might be!

Date:

Astronomy

Feb. 10, 2013 Rise Set
Actual Time 6:59 AM EST 6:11 PM EST
Civil Twilight 6:36 AM EST 6:35 PM EST
Nautical Twilight 6:08 AM EST 7:02 PM EST
Astronomical Twilight 5:41 AM EST 7:29 PM EST
Moon 6:56 AM EST (2/10) 6:50 PM EST (2/10)
Length of Visible Light 11h 59m
Length of Day
11h 11m
New Moon, 0% of the Moon is Illuminated
Feb 10
New Moon
Feb 17
First Quarter
Feb 25
Full
Mar 4
Last Quarter
Mar 11
New

Hourly Weather History & Observations

Time (EST) Temp. Dew Point Humidity Pressure Visibility Wind Dir Wind Speed Gust Speed Precip Events Conditions
12:53 AM 72.0 °F 61.0 °F 68% 30.17 in 10.0 mi ENE 8.1 mph 17.3 mph N/A   Scattered Clouds
1:53 AM 72.0 °F 59.0 °F 64% 30.16 in 10.0 mi ENE 13.8 mph - N/A   Scattered Clouds
2:53 AM 72.0 °F 59.0 °F 64% 30.16 in 10.0 mi East 11.5 mph - N/A   Scattered Clouds
3:53 AM 70.0 °F 59.0 °F 68% 30.16 in 10.0 mi East 10.4 mph - N/A   Scattered Clouds
4:53 AM 70.0 °F 57.9 °F 65% 30.16 in 10.0 mi East 8.1 mph - N/A   Scattered Clouds
5:53 AM 69.1 °F 57.9 °F 68% 30.17 in 10.0 mi East 8.1 mph - N/A   Scattered Clouds
6:53 AM 70.0 °F 60.1 °F 71% 30.19 in 10.0 mi East 10.4 mph - N/A   Partly Cloudy
7:53 AM 73.0 °F 61.0 °F 66% 30.21 in 10.0 mi East 11.5 mph - 0.00 in Rain Light Rain
8:53 AM 75.9 °F 59.0 °F 56% 30.22 in 10.0 mi ESE 13.8 mph - 0.00 in   Scattered Clouds
9:53 AM 77.0 °F 61.0 °F 58% 30.24 in 10.0 mi East 15.0 mph - N/A   Scattered Clouds
10:53 AM 77.0 °F 59.0 °F 54% 30.26 in 10.0 mi ESE 17.3 mph - N/A   Scattered Clouds
11:53 AM 79.0 °F 59.0 °F 50% 30.25 in 10.0 mi ESE 15.0 mph 26.5 mph N/A   Scattered Clouds
12:53 PM 78.1 °F 62.1 °F 58% 30.23 in 10.0 mi East 19.6 mph - N/A   Mostly Cloudy
1:53 PM 75.9 °F 63.0 °F 64% 30.21 in 10.0 mi ESE 18.4 mph - N/A   Mostly Cloudy
2:53 PM 75.9 °F 62.1 °F 62% 30.19 in 10.0 mi ESE 17.3 mph - N/A   Mostly Cloudy
3:53 PM 75.9 °F 61.0 °F 60% 30.18 in 10.0 mi East 21.9 mph 27.6 mph N/A   Mostly Cloudy
4:53 PM 75.0 °F 60.1 °F 60% 30.19 in 10.0 mi East 19.6 mph - N/A   Mostly Cloudy
5:53 PM 73.0 °F 61.0 °F 66% 30.18 in 10.0 mi ESE 18.4 mph - N/A   Overcast
6:53 PM 73.0 °F 61.0 °F 66% 30.19 in 10.0 mi ESE 13.8 mph 21.9 mph N/A   Mostly Cloudy
7:53 PM 73.0 °F 62.1 °F 68% 30.21 in 10.0 mi East 13.8 mph - N/A   Mostly Cloudy
8:53 PM 73.0 °F 62.1 °F 68% 30.23 in 10.0 mi ESE 15.0 mph - N/A   Mostly Cloudy
9:53 PM 73.0 °F 62.1 °F 68% 30.23 in 10.0 mi ESE 12.7 mph - N/A   Mostly Cloudy
10:53 PM 72.0 °F 61.0 °F 68% 30.22 in 10.0 mi ESE 12.7 mph - N/A   Scattered Clouds
11:53 PM 72.0 °F 61.0 °F 68% 30.21 in 10.0 mi ESE 12.7 mph - N/A   Mostly Cloudy